This is the latest recevied weather packets stored in our database for station/object NK7E. If no packets are shown the sender has not sent any weather packets the latest 10 day(s).
| Time | Temp. | Humidity | Pressure | Rain* | Wind** | Luminosity | Snow |
|---|---|---|---|---|---|---|---|
| 1777990517 | 15.56° C | 78% | 1012.3 hPa | 0 mm | - | 37 W/m² | - |
| 1777989917 | 15.56° C | 79% | 1012.2 hPa | 0 mm | - | 57 W/m² | - |
| 1777989317 | 15.56° C | 78% | 1012 hPa | 0 mm | - | 71 W/m² | - |
| 1777988717 | 15° C | 79% | 1012 hPa | 0 mm | - | 61 W/m² | - |
| 1777988117 | 15° C | 80% | 1012.1 hPa | 0 mm | - | 40 W/m² | - |
| 1777987517 | 14.44° C | 83% | 1012 hPa | 0 mm | - | 31 W/m² | - |
| 1777986917 | 14.44° C | 85% | 1011.9 hPa | 0 mm | - | 28 W/m² | - |
| 1777986317 | 14.44° C | 86% | 1011.8 hPa | 0 mm | - | 16 W/m² | - |
| 1777985717 | 14.44° C | 86% | 1011.6 hPa | 0.25 mm | - | 9 W/m² | - |
| 1777985117 | 14.44° C | 86% | 1011.5 hPa | 0.25 mm | - | 2 W/m² | - |
| 1777984517 | 14.44° C | 85% | 1011.5 hPa | 0.51 mm | - | 0 W/m² | - |
| 1777983917 | 14.44° C | 83% | 1011.4 hPa | 0.51 mm | - | 0 W/m² | - |
| 1777983317 | 14.44° C | 84% | 1011.1 hPa | 0.51 mm | - | 0 W/m² | - |
| 1777982717 | 13.89° C | 85% | 1011.1 hPa | 0.51 mm | - | 0 W/m² | - |
| 1777982117 | 13.89° C | 85% | 1011.1 hPa | 0.25 mm | - | 0 W/m² | - |
| 1777981517 | 13.89° C | 84% | 1011.1 hPa | 0.25 mm | - | 0 W/m² | - |
| 1777980917 | 13.89° C | 85% | 1011.4 hPa | 0 mm | - | 0 W/m² | - |
| 1777980317 | 13.89° C | 84% | 1011.4 hPa | 0 mm | - | 0 W/m² | - |
| 1777979717 | 13.89° C | 86% | 1011.3 hPa | 0.25 mm | - | 0 W/m² | - |
| 1777979117 | 13.89° C | 87% | 1011.5 hPa | 0.51 mm | - | 0 W/m² | - |
| 1777978517 | 13.89° C | 90% | 1011.7 hPa | 0.51 mm | - | 0 W/m² | - |
| 1777977917 | 13.89° C | 90% | 1011.8 hPa | 0.51 mm | - | 0 W/m² | - |
| 1777977317 | 13.89° C | 91% | 1011.1 hPa | 0.76 mm | - | 0 W/m² | - |
| 1777976717 | 13.89° C | 91% | 1011.9 hPa | 1.02 mm | - | 0 W/m² | - |
| 1777976117 | 13.89° C | 91% | 1012.6 hPa | 1.02 mm | - | 0 W/m² | - |
* Rain latest hour (hover to see other rain measurements)
** Current wind speed in m/s (hover to see current wind gust speed)